This is the latest recevied weather packets stored in our database for station/object OH6GKW. If no packets are shown the sender has not sent any weather packets the latest 10 day(s).
| Time | Temp. | Humidity | Pressure | Rain* | Wind** | Luminosity | Snow |
|---|---|---|---|---|---|---|---|
| 1778048632 | 4.44° C | 67% | 1004.3 hPa | 0 mm | - | 443 W/m² | - |
| 1778048328 | 4.44° C | 67% | 1004.3 hPa | 0 mm | - | 435 W/m² | - |
| 1778048021 | 4.44° C | 67% | 1004.1 hPa | 0 mm | - | 424 W/m² | - |
| 1778047713 | 4.44° C | 67% | 1004.1 hPa | 0 mm | - | 415 W/m² | - |
| 1778047427 | 4.44° C | 67% | 1004.1 hPa | 0 mm | - | 406 W/m² | - |
| 1778047117 | 4.44° C | 67% | 1004 hPa | 0 mm | - | 396 W/m² | - |
| 1778046813 | 4.44° C | 68% | 1004 hPa | 0 mm | - | 385 W/m² | - |
| 1778046525 | 3.89° C | 67% | 1004 hPa | 0 mm | - | 377 W/m² | - |
| 1778046221 | 3.89° C | 68% | 1003.7 hPa | 0 mm | - | 364 W/m² | - |
| 1778045914 | 3.89° C | 69% | 1003.7 hPa | 0 mm | - | 359 W/m² | - |
| 1778045640 | 3.89° C | 69% | 1003.7 hPa | 0 mm | - | 340 W/m² | - |
| 1778045330 | 3.89° C | 69% | 1003.6 hPa | 0 mm | - | 86 W/m² | - |
| 1778045024 | 3.89° C | 70% | 1003.6 hPa | 0 mm | - | 65 W/m² | - |
| 1778044718 | 3.89° C | 71% | 1003.6 hPa | 0 mm | - | 65 W/m² | - |
| 1778044415 | 3.89° C | 71% | 1003.4 hPa | 0 mm | - | 310 W/m² | - |
| 1778044123 | 3.89° C | 72% | 1003.4 hPa | 0 mm | - | 111 W/m² | - |
| 1778043818 | 3.89° C | 71% | 1003.4 hPa | 0 mm | - | 35 W/m² | - |
| 1778043508 | 3.33° C | 71% | 1003.3 hPa | 0 mm | - | 95 W/m² | - |
| 1778043237 | 3.89° C | 71% | 1003.3 hPa | 0 mm | - | 35 W/m² | - |
| 1778042929 | 3.89° C | 71% | 1003.3 hPa | 0 mm | - | 148 W/m² | - |
| 1778042620 | 3.33° C | 71% | 1003.2 hPa | 0 mm | - | 74 W/m² | - |
| 1778042313 | 3.33° C | 71% | 1003.2 hPa | 0 mm | - | 132 W/m² | - |
| 1778042030 | 3.33° C | 72% | 1003.2 hPa | 0 mm | - | 141 W/m² | - |
| 1778041721 | 3.33° C | 71% | 1003.1 hPa | 0 mm | - | 33 W/m² | - |
| 1778041414 | 3.33° C | 72% | 1003.1 hPa | 0 mm | - | 26 W/m² | - |
* Rain since midnight (hover to see other rain measurements)
** Current wind speed in m/s (hover to see current wind gust speed)